Location: San Mango sul Calore
(40.9667°N, 14.9667°E)
Time: 11:16:46
(UTC+00:00)

Daily predictions for brighter satellites

Satellite Brightness Start Highest point End
(mag) Time Altitude Azimuth Time Altitude Azimuth Time Altitude Azimuth
Cosmos 1606 3.0 18:42:14 10° N 18:45:56 47° E 18:49:36 10° SSE
Cosmos 2221 2.5 18:47:17 10° N 18:51:37 82° E 18:55:58 10° S
Cosmos 2151 3.8 18:49:04 10° SSE 18:52:47 31° E 18:56:32 10° NNE
SJ-6B 2.7 18:50:01 10° SSE 18:53:43 89° NW 18:57:28 10° NNW
Cosmos 158 Rocket 4.1 18:50:43 10° S 18:55:40 52° ESE 19:00:48 10° NNE
ISS -3.5 18:52:40 10° NW 18:56:01 62° NNE 18:59:15 11° ESE
Nadezhda 4 Rocket 4.1 18:50:58 10° S 18:56:57 58° E 19:03:05 10° NNE
Cosmos 2084 4.4 18:54:09 10° SSE 18:57:20 23° ESE 19:00:34 10° ENE
Cosmos 1980 Rocket 2.3 18:53:42 10° NNW 18:59:22 86° WSW 19:05:01 10° SSE
ERS-2 2.6 18:58:31 10° NNE 19:01:57 39° E 19:05:21 10° S
Cosmos 2369 4.4 19:01:26 10° NNW 19:06:55 54° WSW 19:12:23 10° S
Helios 1A Rocket 3.2 19:03:17 10° S 19:07:18 68° WSW 19:11:23 10° NNW
GEOS 3 Rocket 4.5 19:04:16 10° NNE 19:09:19 55° NW 19:14:18 10° SW
Cosmos 371 Rocket 3.3 19:06:04 10° NNW 19:10:54 80° ENE 19:15:43 10° SSE
Cosmos 2322 Rocket 3.4 19:07:13 10° N 19:11:59 27° NE 19:16:06 13° ESE
USA 276 2.9 19:15:39 10° NW 19:18:41 42° NNE 19:20:56 16° E
Cosmos 1633 3.8 19:24:00 10° SSW 19:27:27 43° W 19:30:55 10° N
BREEZE-M DEB (TANK) 3.3 19:26:59 10° WSW 19:30:11 74° NNW 19:40:35 10° ENE
Cosmos 1680 Rocket 3.7 19:27:51 10° S 19:32:56 50° ESE 19:38:00 10° NNE
Cosmos 2112 Rocket 4.4 19:28:28 10° S 19:33:26 43° ESE 19:38:24 10° NNE
Resurs 01 Rocket 1.6 19:31:16 14° SSE 19:35:00 78° ENE 19:39:28 10° N
Terra 3.6 19:40:07 14° E 19:41:54 17° ENE 19:44:50 10° NNE
SL-16 R/B 2.4 19:37:18 10° NNW 19:42:55 60° ENE 19:46:27 23° SE
Cosmos 1151 Rocket 3.8 19:39:13 10° N 19:43:14 35° ENE 19:44:56 25° ESE
Meteor 2-3 Rocket 3.7 19:39:32 10° S 19:45:11 86° E 19:50:58 10° N
SPOT 3 Rocket 3.5 19:41:43 18° SSE 19:45:42 78° ENE 19:50:56 10° N
NOSS 2-1 (E) 3.0 19:43:26 10° SSW 19:46:42 46° ESE 19:49:52 10° NE
Cosmos 332 Rocket 3.9 19:44:34 10° NNW 19:49:29 74° WSW 19:52:56 19° S
CZ-2C R/B 3.7 19:47:01 10° NNE 19:51:28 59° E 19:54:30 19° S
Cosmos 1766 Rocket 3.8 19:50:48 26° SSE 19:53:00 50° E 19:57:14 10° NNE
Cosmos 1933 3.4 19:50:18 10° N 19:54:21 77° W 19:56:51 22° S
Cosmos 1271 Rocket 2.7 19:51:39 10° N 19:55:40 90° SSW 19:57:43 28° S
Gbstr 26 Del rocket 2.7 19:52:54 10° NW 19:56:39 76° NE 19:58:12 35° ESE
Cosmos 1328 Rocket 4.3 19:52:42 10° N 19:56:50 37° ENE 19:58:06 30° ESE
SPOT 5 3.7 19:57:34 25° E 19:58:46 30° ENE 20:02:36 10° N
IGS 5A 4.1 19:56:07 16° S 19:59:17 52° W 20:03:21 10° NNW
ARIANE 5 R/B 3.3 19:58:58 30° ESE 20:00:26 39° ENE 20:04:33 10° N
Cosmos 1862 3.9 20:04:11 36° ESE 20:04:30 36° E 20:08:10 10° NNE
Ariane Rocket 4.3 20:00:17 10° SSW 20:04:55 36° W 20:09:36 10° NNW
JB-3 4.3 20:01:10 10° NNE 20:05:17 76° ESE 20:07:17 29° S
Landsat 7 4.4 20:02:50 17° S 20:06:23 56° W 20:11:05 10° NNW
Cosmos 1782 2.7 20:06:17 10° N 20:10:19 87° WSW 20:11:44 39° S
Meteor 2-21 4.5 20:10:21 25° SSE 20:13:55 62° E 20:19:59 10° NNE
Cosmos 1624 Rocket 4.2 20:09:12 10° N 20:14:19 54° ENE 20:16:05 37° ESE
Cosmos 220 Rocket 3.9 20:13:05 10° NNW 20:17:28 74° ENE 20:18:36 48° SE
ATLAS 3B R/B 4.0 20:15:36 10° NW 20:21:57 34° WSW 20:27:19 15° S
Cosmos 2360 Rocket 2.4 20:16:27 10° NNW 20:21:59 56° ENE 20:23:55 38° ESE
Atlas Centaur 2 3.8 20:27:26 10° SW 20:27:39 10° SW 20:27:39 10° SW
USA 267 4.3 20:23:48 10° ENE 20:27:32 25° E 20:27:32 25° E
NOSS 2-1 (C) 4.2 20:27:48 10° WSW 20:30:59 40° NW 20:34:07 10° NNE
ISS -1.4 20:30:26 10° W 20:32:13 15° SW 20:32:13 15° SW
Cosmos 1500 Rocket 4.4 20:34:48 35° ENE 20:34:48 35° ENE 20:38:22 10° NNE
COSMOS 2455 2.9 20:34:50 42° SSE 20:36:20 52° ESE 20:42:09 10° NE
Cosmos 1833 4.1 20:33:10 21° SSW 20:37:12 84° ESE 20:43:00 10° NNE
Cosmos 1812 2.6 20:36:30 10° N 20:40:22 78° W 20:40:31 76° SW
SPOT 1/Viking Rocket 4.5 20:38:27 23° SSW 20:41:12 42° W 20:46:09 10° NNW
ERS-1 Rocket 2.9 20:40:26 53° SSE 20:41:38 86° ENE 20:46:41 10° NNW
GP-B 4.1 20:37:36 10° NNW 20:41:48 43° W 20:44:01 24° SW
Meteor 1-27 Rocket 4.3 20:37:02 10° N 20:42:24 41° ENE 20:43:21 38° E
Cosmos 2333 Rocket 2.9 20:37:45 10° N 20:43:05 40° ENE 20:44:24 35° E
Meteor 2-16 Rocket 4.4 20:42:27 44° SSE 20:44:20 68° E 20:50:23 10° NNE
BREEZE-M DEB (TANK) 4.5 20:40:27 10° WNW 20:44:45 66° SSW 20:49:45 33° SE
Cosmos 1452 Rocket 4.4 20:40:24 10° N 20:45:11 34° ENE 20:45:57 33° E
SL-27 R/B 3.3 20:44:42 41° WSW 20:45:23 48° WNW 20:48:54 10° N
Cosmos 2322 4.3 20:44:51 10° NNW 20:50:19 44° ENE 20:51:30 39° E
Cosmos 1408 Rocket 3.6 20:50:55 63° SW 20:51:29 74° W 20:55:50 10° N
H-2A R/B 4.3 20:47:35 10° NNE 20:50:38 38° ENE 20:50:38 38° ENE
Cosmos 2056 Rocket 3.7 20:49:53 10° NNW 20:55:11 66° WSW 20:56:16 52° SSW
Cosmos 1743 Rocket 3.8 20:55:46 58° ENE 20:55:46 58° ENE 20:59:41 10° NNE
Cosmos 2237 Rocket 4.3 20:52:22 10° NNE 20:55:25 14° NE 20:57:41 12° ENE
Cosmos 2322 Rocket 2.9 20:50:53 10° NW 20:56:12 45° WSW 20:57:54 35° SSW
Spot 2 Rocket 4.5 21:03:04 31° SW 21:04:40 39° W 21:09:27 10° NNW
Meteor 1-10 Rocket 4.2 21:00:41 10° NNW 21:06:14 76° W 21:07:16 59° SSW
Cosmos 2219 Rocket 2.3 21:08:26 10° NNW 21:13:57 58° ENE 21:14:26 56° E
BREEZE M DEB (TANK) 4.4 21:11:50 10° W 21:16:13 79° N 21:50:36 10° E
Terra 2.1 21:19:00 55° WSW 21:19:10 56° W 21:23:52 10° NNW
Cosmos 1515 Rocket 4.3 21:16:25 10° NNW 21:20:37 46° W 21:20:37 46° W
IRIDIUM 114 4.3 21:16:08 10° N 21:21:09 67° ENE 21:21:09 67° ENE
Cosmos 2266 Rocket 4.1 21:19:57 48° SSW 21:21:40 72° W 21:27:56 10° N
Cosmos 489 Rocket 4.4 21:22:01 64° SE 21:22:24 66° ESE 21:28:41 10° NNE
Cosmos 2285 Rocket 3.9 21:19:14 10° NNW 21:25:32 68° ENE 21:26:17 62° ESE
SL-16 R/B 4.1 21:22:39 10° WNW 21:26:28 19° W 21:28:19 16° WSW
Cosmos 468 4.4 21:29:46 78° NE 21:29:46 78° NE 21:34:40 10° NNE
Cosmos 2315 Rocket 3.9 21:23:48 10° N 21:30:11 83° E 21:30:56 70° SSE
IRIDIUM 103 4.2 21:25:16 10° N 21:30:18 80° NE 21:30:18 80° NE
Cosmos 494 Rocket 4.2 21:32:48 57° NE 21:32:48 57° NE 21:37:00 10° NNE
ATLAS 5 CENTAUR R/B 2.9 21:26:32 10° NNW 21:32:00 49° NE 21:33:05 44° E
Cosmos 2333 4.2 21:27:35 10° NNW 21:33:09 69° WSW 21:33:17 69° WSW
Cosmos 2228 Rocket 3.6 21:31:45 10° N 21:35:17 56° NNW 21:35:17 56° NNW
SPOT 5 4.4 21:36:47 23° W 21:36:53 23° W 21:40:23 10° NW
COSMOS 2428 2.6 21:35:50 10° NNW 21:41:31 78° ENE 21:41:31 78° ENE
NOSS 3-1 (C) 4.2 21:39:51 10° NW 21:47:35 70° WSW 21:49:23 56° S
Cosmos 1048 Rocket 4.2 21:48:39 61° WNW 21:48:39 61° WNW 21:53:42 10° NNE
ALOS 2 4.1 21:59:23 31° NE 21:59:23 31° NE 22:02:10 10° N
USA 229 DEB 3.8 21:56:01 10° NW 22:03:28 85° WSW 22:04:27 71° SSE
USA 229 3.8 21:56:07 10° NW 22:03:34 86° WSW 22:04:33 71° SSE
Cosmos 2360 Rocket 4.0 22:01:30 10° NW 22:05:30 20° W 22:05:41 20° WSW
USA 267 3.3 22:06:08 10° NE 22:12:40 78° NW 22:14:48 46° WSW
Nadezhda 1 Rocket 4.4 22:07:03 10° N 22:13:14 50° ENE 22:13:14 50° ENE
Cosmos 1980 4.1 22:12:21 10° NNW 22:17:31 58° NE 22:17:31 58° NE
NOSS 0 Rocket 3.9 22:12:53 10° NNW 22:18:53 82° N 22:18:53 82° N
NOSS 3-1 (A) 4.1 22:16:20 10° NW 22:24:04 68° WSW 22:25:00 64° SSW
Lacrosse 5 2.9 22:25:49 41° NNE 22:25:49 41° NNE 22:29:10 10° NE
Cosmos 2333 Rocket 3.6 22:22:22 10° NW 22:26:23 28° W 22:26:23 28° W
Cosmos 2297 Rocket 2.6 22:32:07 59° NE 22:32:07 59° NE 22:36:41 10° NNE
BREEZE-M R/B 4.0 22:31:57 35° N 22:31:57 35° N 22:36:13 10° ENE
Cosmos 2237 Rocket 2.5 22:34:39 10° NNW 22:39:29 65° N 22:39:29 65° N
Cosmos 2227 Rocket 2.7 22:44:30 55° NE 22:44:30 55° NE 22:48:54 10° NNE
USA 234 3.6 22:42:59 44° E 22:44:52 59° NE 22:51:17 10° NW
Cosmos 2263 Rocket 4.3 22:57:34 15° E 22:57:34 15° E 22:59:36 10° ENE
Cosmos 2219 Rocket 4.1 22:53:33 10° WNW 22:56:08 18° W 22:56:08 18° W
SL-16 R/B 2.8 23:04:23 10° NNW 23:09:38 51° NE 23:09:38 51° NE
ATLAS 5 CENTAUR R/B 3.8 23:11:22 10° NW 23:14:35 27° W 23:14:35 27° W
Meteor 1-11 Rocket 4.0 23:25:58 61° N 23:25:58 61° N 23:30:32 10° N
Cosmos 1709 Rocket 4.2 23:30:39 65° WNW 23:30:39 65° WNW 23:36:45 10° N
ASTEX 1 4.4 23:35:17 40° NE 23:35:17 40° NE 23:39:04 10° N
Cosmos 2219 4.4 23:42:23 33° WNW 23:42:46 34° WNW 23:47:59 10° N
CZ-2D R/B 3.6 23:41:18 10° NE 23:45:32 27° E 23:45:32 27° E
